This is the latest recevied weather packets stored in our database for station/object DK9HI-WX. If no packets are shown the sender has not sent any weather packets the latest 10 day(s).
| Time | Temp. | Humidity | Pressure | Rain* | Wind** | Luminosity | Snow |
|---|---|---|---|---|---|---|---|
| 1777405370 | 14.44° C | 33% | 1027 hPa | - | - | - | - |
| 1777404770 | 15° C | 32% | 1026.9 hPa | - | - | - | - |
| 1777404170 | 15° C | 32% | 1026.8 hPa | - | - | - | - |
| 1777403570 | 15.56° C | 31% | 1026.8 hPa | - | - | - | - |
| 1777402970 | 15.56° C | 31% | 1026.7 hPa | - | - | - | - |
| 1777402370 | 16.11° C | 30% | 1026.5 hPa | - | - | - | - |
| 1777401771 | 16.67° C | 30% | 1026.4 hPa | - | - | - | - |
| 1777400570 | 17.22° C | 29% | 1026.2 hPa | - | - | - | - |
| 1777399970 | 17.78° C | 28% | 1026.2 hPa | - | - | - | - |
| 1777399371 | 17.78° C | 27% | 1026 hPa | - | - | - | - |
| 1777398770 | 18.33° C | 27% | 1026 hPa | - | - | - | - |
| 1777398170 | 18.89° C | 26% | 1025.9 hPa | - | - | - | - |
| 1777397570 | 18.89° C | 27% | 1025.8 hPa | - | - | - | - |
| 1777396972 | 19.44° C | 26% | 1025.7 hPa | - | - | - | - |
| 1777396372 | 20° C | 24% | 1025.7 hPa | - | - | - | - |
| 1777395769 | 19.44° C | 26% | 1025.6 hPa | - | - | - | - |
| 1777395169 | 20° C | 25% | 1025.6 hPa | - | - | - | - |
| 1777394569 | 20° C | 25% | 1025.6 hPa | - | - | - | - |
| 1777393970 | 20° C | 25% | 1025.6 hPa | - | - | - | - |
| 1777393369 | 20° C | 25% | 1025.6 hPa | - | - | - | - |
| 1777392772 | 20° C | 24% | 1025.5 hPa | - | - | - | - |
| 1777392169 | 20° C | 24% | 1025.6 hPa | - | - | - | - |
| 1777391569 | 20.56° C | 23% | 1025.7 hPa | - | - | - | - |
| 1777390968 | 20.56° C | 24% | 1025.5 hPa | - | - | - | - |
| 1777390370 | 20° C | 24% | 1025.6 hPa | - | - | - | - |
* Rain since midnight (hover to see other rain measurements)
** Current wind speed in m/s (hover to see current wind gust speed)